[Date Prev][Date Next][Thread Prev][Thread Next] - [Date Index][Thread Index][Author Index]

2 Line ISS Keps 12-3



ISS
1 25544U 98067A   01337.18368056  .00054166  00000-0  58544-3 0  7888
2 25544  51.6403 318.5152 0010458  49.2624 130.4566 15.63005567173454


----
Via the sarex mailing list at AMSAT.ORG courtesy of AMSAT-NA.
To unsubscribe, send "unsubscribe sarex" to Majordomo@amsat.org



AMSAT Top AMSAT Home